DW8923 Weather Reports


time (UTC)temp
C
wind
direction
speed
KPH
gust
KPH
rain 1hr
cm
rain 24hr
cm
rain mn
cm
humidity
%
barometer
mb
20260904161541 31 233 4.8 11.3 0.00 0.08 0.08 67 1012.8
20260904160034 31 153 4.8 16.1 0.00 0.08 0.08 69 1012.9
20260904154531 30 229 6.4 12.9 0.00 0.08 0.08 71 1012.8
20260904153027 29 184 3.2 14.5 0.03 0.08 0.08 77 1012.8
20260904151526 27 144 4.8 11.3 0.03 0.08 0.08 83 1012.8
20260904150025 27 189 1.6 8.0 0.03 0.08 0.08 86 1012.7
20260904144515 26 161 6.4 12.9 0.03 0.08 0.08 89 1012.6
20260904143011 26 165 1.6 8.0 0.00 0.05 0.05 92 1012.5
20260904141511 26 149 3.2 9.7 0.00 0.05 0.05 92 1012.5
20260904140009 25 232 1.6 12.9 0.03 0.05 0.05 92 1012.5
20260904134517 25 159 1.6 6.4 0.05 0.05 0.05 92 1012.4
20260904133008 25 211 3.2 9.7 0.05 0.05 0.05 92 1012.3
20260904131509 25 225 1.6 6.4 0.05 0.05 0.05 91 1012.4
20260904130009 25 182 0.0 6.4 0.03 0.03 0.03 91 1012.5
20260904124505 25 134 1.6 8.0 0.00 0.00 0.00 90 1012.5
20260904123009 25 162 1.6 6.4 0.00 0.00 0.00 89 1012.5
20260904121501 26 44 3.2 6.4 0.00 0.00 0.00 88 1012.4
20260904120111 26 95 1.6 8.0 0.00 0.00 0.00 88 1012.2
20260904114555 26 81 3.2 11.3 0.00 0.00 0.00 87 1012.0
20260904113052 26 103 3.2 8.0 0.00 0.00 0.00 87 1011.5
20260904111549 26 173 1.6 11.3 0.00 0.00 0.00 86 1011.3
20260904110053 26 175 6.4 14.5 0.00 0.00 0.00 86 1011.3
20260904104548 26 180 3.2 14.5 0.00 0.00 0.00 86 1011.2
20260904103047 26 126 3.2 12.9 0.00 0.00 0.00 86 1011.0
20260904101545 26 144 3.2 8.0 0.00 0.00 0.00 86 1011.1
20260904100047 26 163 3.2 6.4 0.00 0.00 0.00 85 1011.0
20260904094544 26 136 3.2 11.3 0.00 0.00 0.00 85 1010.8
20260904093043 26 165 4.8 11.3 0.00 0.00 0.00 84 1010.8
20260904091542 26 156 3.2 12.9 0.00 0.00 0.00 84 1010.8
20260904090040 26 162 4.8 12.9 0.00 0.00 0.00 84 1010.9
20260904084540 26 155 3.2 11.3 0.00 0.00 0.00 84 1010.9
20260904083041 26 163 3.2 12.9 0.00 0.00 0.00 84 1010.8
20260904081548 26 143 11.3 17.7 0.00 0.00 0.00 84 1011.0
20260904080040 26 125 3.2 17.7 0.00 0.00 0.00 83 1011.0
20260904074539 26 217 6.4 14.5 0.00 0.00 0.00 83 1010.9
20260904073035 26 147 6.4 19.3 0.00 0.00 0.00 83 1010.9
20260904071534 26 132 6.4 14.5 0.00 0.00 0.00 83 1011.0
20260904070033 26 158 3.2 12.9 0.00 0.00 0.00 83 1011.2
20260904064531 26 177 6.4 14.5 0.00 0.00 0.00 83 1011.3
20260904063033 26 175 4.8 16.1 0.00 0.00 0.00 82 1011.2
20260904061540 26 119 6.4 17.7 0.00 0.00 0.00 82 1011.1
20260904060028 26 153 4.8 16.1 0.00 0.00 0.00 82 1011.2
20260904054628 26 192 8.0 16.1 0.00 0.00 0.00 82 1011.0
20260904053025 26 145 6.4 16.1 0.00 0.00 0.00 82 1011.1
20260904051523 26 150 8.0 16.1 0.00 0.00 0.00 82 1011.0
20260904050020 26 134 4.8 17.7 0.00 0.00 0.00 81 1010.9
20260904044534 26 154 6.4 17.7 0.00 0.00 0.00 81 1010.9
20260904043028 26 167 9.7 17.7 0.00 0.00 0.00 80 1010.8
20260904041521 26 129 4.8 17.7 0.00 0.00 0.00 79 1010.9
20260904040017 27 131 8.0 17.7 0.00 0.00 0.00 78 1011.0
20260904034516 27 126 6.4 14.5 0.00 0.00 0.00 77 1010.8
20260904033115 27 144 6.4 17.7 0.00 0.00 0.00 76 1010.8
20260904031515 27 138 8.0 20.9 0.00 0.00 0.00 75 1010.7
20260904030020 27 134 3.2 14.5 0.00 0.00 0.00 74 1010.6
20260904024516 27 123 8.0 19.3 0.00 0.00 0.00 73 1010.4
20260904023013 27 175 9.7 22.5 0.00 0.00 0.00 72 1010.2
20260904021521 27 136 4.8 12.9 0.00 0.00 0.00 70 1010.2
20260904020012 28 132 4.8 14.5 0.00 0.00 0.00 70 1009.9
20260904014511 28 122 6.4 14.5 0.00 0.00 0.00 69 1009.6
20260904013011 28 144 8.0 17.7 0.00 0.00 0.00 69 1009.6
20260904011510 28 133 11.3 20.9 0.00 0.00 0.00 68 1009.6
20260904010010 28 141 8.0 20.9 0.00 0.00 0.00 68 1009.5
20260904004509 29 131 9.7 20.9 0.00 0.00 0.00 67 1009.3
20260904003008 30 102 11.3 19.3 0.00 0.00 0.00 66 1009.3
20260904001508 30 119 11.3 20.9 0.00 0.00 0.00 66 1009.2
20260904000007 30 115 11.3 29.0 0.00 0.00 0.00 66 1009.1
20260903234517 31 140 9.7 24.1 0.00 0.00 0.00 66 1009.0
20260903233005 31 93 12.9 25.7 0.00 0.00 0.00 64 1008.8
20260903231504 32 145 16.1 30.6 0.00 0.00 0.00 64 1008.8
20260903230008 32 126 12.9 25.7 0.00 0.00 0.00 64 1008.5
20260903224508 33 102 11.3 25.7 0.00 0.00 0.00 61 1008.4
20260903223002 33 138 9.7 29.0 0.00 0.00 0.00 58 1008.3
20260903221502 34 71 11.3 22.5 0.00 0.00 0.00 57 1008.3
20260903220120 35 92 12.9 24.1 0.00 0.00 0.00 55 1008.2
20260903214559 33 111 6.4 19.3 0.00 0.00 0.00 55 1008.3
20260903213157 34 132 9.7 22.5 0.00 0.00 0.00 55 1008.5
20260903211602 35 136 8.0 20.9 0.00 0.00 0.00 55 1008.5
20260903210105 34 98 9.7 22.5 0.00 0.00 0.00 55 1008.6
20260903204553 35 69 8.0 17.7 0.00 0.00 0.00 54 1008.7
20260903203050 35 136 8.0 17.7 0.00 0.00 0.00 54 1009.1
20260903201547 35 71 4.8 12.9 0.00 0.00 0.00 51 1009.4
20260903200044 35 153 4.8 11.3 0.00 0.00 0.00 55 1009.5
20260903194540 33 126 4.8 14.5 0.00 0.00 0.00 57 1009.7
20260903193036 33 47 4.8 11.3 0.00 0.00 0.00 57 1009.9
20260903191546 33 117 3.2 11.3 0.00 0.00 0.00 58 1010.1
20260903190029 32 76 3.2 12.9 0.00 0.00 0.00 59 1010.4
20260903184540 32 109 4.8 14.5 0.00 0.00 0.00 59 1010.6
20260903183028 32 109 3.2 8.0 0.00 0.00 0.00 59 1010.9
20260903181526 32 108 3.2 12.9 0.00 0.00 0.00 60 1011.0
20260903180031 32 49 4.8 11.3 0.00 0.00 0.00 60 1011.2
20260903174519 31 127 1.6 9.7 0.00 0.00 0.00 64 1011.5
20260903173020 31 107 3.2 9.7 0.00 0.00 0.00 64 1011.7
20260903171515 31 128 3.2 9.7 0.00 0.00 0.00 64 1011.8
20260903170013 31 119 3.2 11.3 0.00 0.00 0.00 65 1011.9
20260903164510 31 150 4.8 11.3 0.00 0.00 0.00 66 1011.6
20260903163008 30 193 4.8 17.7 0.00 0.00 0.00 66 1011.5